Weather History for ENFB - November, 2013

Change the Weather History Date:

Thursday, November 21, 2013

  Actual Average Record
Temperature  
Mean Temperature 30 °F -  
Max Temperature 41 °F 34 °F 51 °F (2011)
Min Temperature 18 °F 29 °F 18 °F (2013)
Degree Days  
Heating Degree Days 36    
Moisture  
Dew Point 32 °F    
Average Humidity 76    
Maximum Humidity 93    
Minimum Humidity 61    
Precipitation  
Precipitation 0.00 in - - ()
Sea Level Pressure  
Sea Level Pressure 29.88 in    
Wind  
Wind Speed 14 mph ()    
Max Wind Speed 26 mph    
Max Gust Speed -    
Visibility 6.1 miles    
Events Rain    
Averages and records for this station are not official NWS values.
T = Trace of Precipitation, MM = Missing Value Source: Averaged Metar Reports

Daily Weather History Graph

Daily Weather History Graph

Search for Another Location

Airport or City:

Trip Planner

Search our weather history database for the weather conditions in past years. The results will help you decide how hot, cold, wet, or windy it might be!

Date:

Astronomy

Nov. 21, 2013 Rise Set
Actual Time 9:14 AM CET 4:02 PM CET
Civil Twilight 8:20 AM CET 4:56 PM CET
Nautical Twilight 7:24 AM CET 5:51 PM CET
Astronomical Twilight 6:33 AM CET 6:42 PM CET
Moon 7:32 PM CET (11/21) 12:05 PM CET (11/21)
Length of Visible Light 8h 35m
Length of Day
6h 47m
Waning Gibbous, 87% of the Moon is Illuminated
Nov 21
Waning Gibbous
Nov 25
Last Quarter
Dec 3
New
Dec 9
First Quarter
Dec 17
Full

Hourly Weather History & Observations

Time (CET) Temp. Windchill Dew Point Humidity Pressure Visibility Wind Dir Wind Speed Gust Speed Precip Events Conditions
12:20 AM 42.8 °F 38.0 °F 41.0 °F 93% 29.74 in 6.2 mi NW 8.1 mph - N/A Rain Light Rain
12:50 AM 42.8 °F 37.5 °F 39.2 °F 87% 29.74 in 6.2 mi NNW 9.2 mph - N/A Rain Light Rain Showers
1:00 AM 27 °F - 24 °F 86%  in - WNW 2.2 mph - -  
1:20 AM 42.8 °F 35.8 °F 39.2 °F 87% 29.74 in 6.2 mi NW 13.8 mph - N/A Rain Light Rain Showers
1:50 AM 42.8 °F 36.2 °F 37.4 °F 81% 29.74 in 6.2 mi NW 12.7 mph - N/A   Overcast
2:20 AM 42.8 °F 35.1 °F 37.4 °F 81% 29.74 in 6.2 mi NW 16.1 mph - N/A   Overcast
2:50 AM 42.8 °F 36.2 °F 37.4 °F 81% 29.74 in 6.2 mi NW 12.7 mph - N/A   Mostly Cloudy
3:20 AM 42.8 °F 34.8 °F 37.4 °F 81% 29.77 in 6.2 mi WNW 17.3 mph - N/A   Mostly Cloudy
3:50 AM 42.8 °F 34.5 °F 35.6 °F 76% 29.77 in 6.2 mi WNW 18.4 mph - N/A   Mostly Cloudy
4:00 AM 26 °F - 24 °F 88%  in - West 2.2 mph - -  
4:20 AM 42.8 °F 33.8 °F 37.4 °F 81% 29.77 in 6.2 mi WNW 21.9 mph - N/A   Mostly Cloudy
4:50 AM 42.8 °F 34.0 °F 37.4 °F 81% 29.77 in 6.2 mi NW 20.7 mph - N/A   Mostly Cloudy
5:20 AM 42.8 °F 34.0 °F 37.4 °F 81% 29.77 in 6.2 mi NW 20.7 mph - N/A   Partly Cloudy
5:50 AM 42.8 °F 33.8 °F 37.4 °F 81% 29.80 in 6.2 mi NW 21.9 mph - N/A   Mostly Cloudy
6:20 AM 42.8 °F 33.5 °F 37.4 °F 81% 29.77 in 6.2 mi NW 23.0 mph - N/A   Mostly Cloudy
6:50 AM 41.0 °F 30.9 °F 37.4 °F 87% 29.80 in 6.2 mi NNW 24.2 mph - N/A Rain Light Rain Showers
7:00 AM 24 °F - 21 °F 81%  in - Calm Calm - -  
7:20 AM 42.8 °F 32.9 °F 35.6 °F 76% 29.80 in 6.2 mi NNW 26.5 mph - N/A   Mostly Cloudy
7:50 AM 42.8 °F 33.3 °F 35.6 °F 76% 29.80 in 6.2 mi NW 24.2 mph - N/A   Mostly Cloudy
8:20 AM 41.0 °F 30.9 °F 35.6 °F 81% 29.83 in 3.7 mi NW 24.2 mph - N/A Rain Light Rain
8:50 AM 41.0 °F 30.9 °F 35.6 °F 81% 29.83 in 6.2 mi NNW 24.2 mph - N/A   Mostly Cloudy
9:20 AM 42.8 °F 33.1 °F 35.6 °F 76% 29.83 in 6.2 mi NW 25.3 mph - N/A   Mostly Cloudy
9:50 AM 41.0 °F 30.9 °F 35.6 °F 81% 29.86 in 6.2 mi NNW 24.2 mph - N/A Rain Light Rain
10:20 AM 41.0 °F 30.7 °F 35.6 °F 81% 29.86 in 6.2 mi NW 25.3 mph - N/A   Mostly Cloudy
10:50 AM 41.0 °F 30.7 °F 35.6 °F 81% 29.86 in 6.2 mi NW 25.3 mph - N/A   Mostly Cloudy
11:20 AM 41.0 °F 30.5 °F 33.8 °F 76% 29.86 in 6.2 mi NNW 26.5 mph - N/A   Mostly Cloudy
11:50 AM 41.0 °F 30.5 °F 33.8 °F 76% 29.86 in 6.2 mi NNW 26.5 mph - N/A   Scattered Clouds
12:20 PM 41.0 °F 30.7 °F 33.8 °F 76% 29.89 in 6.2 mi NNW 25.3 mph - N/A   Scattered Clouds
12:50 PM 41.0 °F 30.5 °F 32.0 °F 70% 29.89 in 6.2 mi NW 26.5 mph - N/A   Scattered Clouds
1:00 PM 25 °F - 21 °F 77%  in - West 2.2 mph - -  
1:20 PM 41.0 °F 30.9 °F 32.0 °F 70% 29.89 in 6.2 mi NNW 24.2 mph - N/A   Partly Cloudy
1:50 PM 41.0 °F 31.4 °F 32.0 °F 70% 29.89 in 6.2 mi NNW 21.9 mph - N/A   Scattered Clouds
2:20 PM 42.8 °F 34.0 °F 32.0 °F 66% 29.92 in 6.2 mi NNW 20.7 mph - N/A   Mostly Cloudy
2:50 PM 41.0 °F 31.9 °F 32.0 °F 70% 29.92 in 6.2 mi NW 19.6 mph - N/A   Mostly Cloudy
3:20 PM 41.0 °F 31.9 °F 32.0 °F 70% 29.92 in 6.2 mi NW 19.6 mph - N/A   Mostly Cloudy
3:50 PM 41.0 °F 31.9 °F 33.8 °F 76% 29.92 in 6.2 mi NNW 19.6 mph - N/A   Mostly Cloudy
4:00 PM 21 °F - 18 °F 81%  in - ESE 4.5 mph - -  
4:20 PM 39.2 °F 29.6 °F 33.8 °F 81% 29.92 in 6.2 mi NNW 19.6 mph - N/A   Partly Cloudy
4:50 PM 39.2 °F 29.6 °F 33.8 °F 81% 29.95 in 6.2 mi NNW 19.6 mph - N/A   Scattered Clouds
5:20 PM 39.2 °F 29.6 °F 33.8 °F 81% 29.95 in 6.2 mi NNW 19.6 mph - N/A   Scattered Clouds
5:50 PM 39.2 °F 30.8 °F 33.8 °F 81% 29.95 in 6.2 mi North 15.0 mph - N/A   Mostly Cloudy
6:20 PM 41.0 °F 32.8 °F 30.2 °F 65% 29.98 in 6.2 mi NW 16.1 mph - N/A   Mostly Cloudy
6:50 PM 41.0 °F 32.8 °F 28.4 °F 61% 29.98 in 6.2 mi NW 16.1 mph - N/A   Mostly Cloudy
7:00 PM 18 °F - 15 °F 83%  in - West 4.5 mph - -  
7:20 PM 41.0 °F 32.8 °F 28.4 °F 61% 29.98 in 6.2 mi NW 16.1 mph - N/A   Overcast
7:50 PM 41.0 °F 32.8 °F 28.4 °F 61% 29.98 in 6.2 mi WNW 16.1 mph - N/A   Overcast
8:20 PM 41.0 °F 32.8 °F 28.4 °F 61% 30.01 in 6.2 mi WNW 16.1 mph - N/A   Overcast
8:50 PM 41.0 °F 32.5 °F 28.4 °F 61% 30.01 in 6.2 mi WNW 17.3 mph - N/A   Overcast
9:20 PM 39.2 °F 31.6 °F 26.6 °F 61% 30.01 in 6.2 mi NW 12.7 mph - N/A   Mostly Cloudy
9:50 PM 41.0 °F 34.3 °F 28.4 °F 61% 30.01 in 6.2 mi WNW 11.5 mph - N/A   Overcast
10:00 PM 18 °F - 14 °F 79%  in - West 4.5 mph - -  
10:20 PM 39.2 °F 32.5 °F 28.4 °F 65% 30.01 in 6.2 mi WNW 10.4 mph - N/A   Overcast
10:50 PM 39.2 °F 31.6 °F 28.4 °F 65% 30.01 in 6.2 mi NW 12.7 mph - N/A   Overcast
11:20 PM 39.2 °F 32.5 °F 30.2 °F 70% 30.04 in 6.2 mi WNW 10.4 mph - N/A   Overcast
11:50 PM 39.2 °F 32.0 °F 28.4 °F 65% 30.04 in 6.2 mi West 11.5 mph - N/A   Overcast